This demonstration page uses our WeatherBlox Daily Observations layout. Learn more.

Left ArrowRight Arrow

44.8408, -93.29828

Hourly Observations for July 15, 2021

Temp ( °F °C ) Dew Point ( °F °C ) Humidity (%) Winds ( mph kmh ) Pressure ( in mb ) Visibility ( mi km ) Precip ( " mm )
12:53 am 00:53 Clear 64 17.8 61 16.1 90 90 N 6 9 29.97 1015 10 16 0.00 0.00
1:53 am 01:53 Clear 64 17.8 62 16.7 93 93 N 8 13 29.96 1015 7 11 0.00 0.00
2:01 am 02:01 Mostly Clear 64 17.8 62 16.7 93 93 N 10 17 29.96 1014 7 11 0.00 0.00
2:53 am 02:53 Clear 63 17.2 61 16.1 93 93 NNW 9 15 29.96 1014 7 11 0.00 0.00
3:27 am 03:27 Mostly Clear 63 17.2 61 16.1 93 93 N 8 13 29.96 1014 7 11 0.00 0.00
3:47 am 03:47 Mostly Cloudy 63 17 61 16 94 94 NNE 3 6 29.97 1015 7 11 0.00 0.00
3:53 am 03:53 Mostly Cloudy 62 16.7 61 16.1 96 96 N 7 11 29.98 1015 7 11 0.00 0.00
4:53 am 04:53 Cloudy 62 16.7 60 15.6 93 93 NNE 9 15 29.99 1016 7 11 0.00 0.00
5:53 am 05:53 Cloudy with Mist and Fog 61 16.1 59 15 93 93 N 8 13 30.00 1016 6 10 0.00 0.00
6:53 am 06:53 Cloudy with Mist and Fog 61 16.1 59 15 93 93 NNE 5 7 30.03 1017 6 10 0.00 0.00
7:53 am 07:53 Mostly Cloudy 63 17.2 59 15 87 87 NNE 6 9 30.04 1017 9 14 0.00 0.00
8:20 am 08:20 Partly Cloudy 64 17.8 59 15 84 84 N 7 11 30.03 1017 9 14 0.00 0.00
8:53 am 08:53 Sunny 66 18.9 59 15 78 78 NNE 5 7 30.05 1018 9 14 0.00 0.00
9:53 am 09:53 Sunny 70 21.1 58 14.4 66 66 VRB 3 6 30.05 1018 9 14 0.00 0.00
10:53 am 10:53 Sunny 74 23.3 56 13.3 54 54 ENE 6 9 30.04 1017 9 14 0.00 0.00
11:53 am 11:53 Sunny 77 25 55 12.8 47 47 ENE 7 11 30.04 1017 10 16 0.00 0.00
12:53 pm 12:53 Sunny 79 26.1 55 12.8 44 44 ESE 8 13 30.03 1017 10 16 0.00 0.00
1:53 pm 13:53 Mostly Sunny 80 26.7 51 10.6 37 37 E 12 19 30.01 1016 10 16 0.00 0.00
2:53 pm 14:53 Mostly Sunny 81 27.2 50 10 34 34 E 13 20 30.01 1016 10 16 0.00 0.00
3:53 pm 15:53 Mostly Sunny 82 27.8 49 9.4 32 32 undefined N/A 30.00 1016 10 16 0.00 0.00
4:53 pm 16:53 Mostly Sunny 81 27.2 48 8.9 32 32 NE 7 11 29.99 1016 10 16 0.00 0.00
5:53 pm 17:53 Mostly Sunny 82 27.8 49 9.4 32 32 NNE 9 15 29.99 1016 10 16 0.00 0.00
6:53 pm 18:53 Mostly Sunny 81 27.2 47 8.3 30 30 N 6 9 29.98 1015 10 16 0.00 0.00
7:53 pm 19:53 Sunny 80 26.7 47 8.3 31 31 NNE 3 6 29.98 1015 10 16 0.00 0.00
8:53 pm 20:53 Sunny 77 25 52 11.1 42 42 SSE 6 9 29.98 1015 10 16 0.00 0.00
9:53 pm 21:53 Mostly Clear 76 24.4 55 12.8 48 48 SW 7 11 30.00 1016 10 16 0.00 0.00
10:53 pm 22:53 Clear 73 22.8 57 13.9 57 57 SW 5 7 30.01 1016 10 16 0.00 0.00
11:53 pm 23:53 Clear 69 20.6 57 13.9 66 66 Calm 30.01 1016 10 16 0.00 0.00

Powered by AerisWeather